Miscellaneous Local Product
Issued by NWS Hastings, NE

Home | Current Version | Previous Version | Graphics & Text | Print | Product List | Glossary On
Versions: 1 2 3 4 5 6 7 8 9 10 11 12 13 14 15 16 17 18 19 20 21 22 23 24 25 26 27 28 29 30 31 32 33 34 35 36 37 38 39 40 41 42 43 44 45 46 47 48 49 50
000
AXUS43 KGID 270402
MISGRI

GID CWA HOURLY WEATHER ROUNDUP
NATIONAL WEATHER SERVICE HASTINGS NE
1100 PM CDT THU MAR 26 2015

NOTE: "FAIR" INDICATES FEW OR NO CLOUDS BELOW 12,000 FEET WITH NO
SIGNIFICANT WEATHER AND/OR OBSTRUCTIONS TO VISIBILITY.

...SOUTH CENTRAL NEBRASKA...

CITY           SKY/WX    TMP DP  RH WIND       PRES   REMARKS
GRAND ISLAND   CLOUDY    33  28  81 NE12      30.23R WCI  24
HASTINGS       CLOUDY    34  29  82 NE18      30.20S WCI  23
KEARNEY        MOCLDY    30  27  86 N13       30.21S WCI  20
ORD            CLOUDY    34  26  72 NE12      30.22R WCI  25
YORK           PTCLDY    32  32 100 N12       30.21R WCI  23
AURORA         CLOUDY    33  31  94 N12       30.21R WCI  24
LEXINGTON      CLOUDY    35  29  79 NE9       30.20S WCI  28
HOLDREGE       CLOUDY    35  29  79 NE14      30.18S WCI  25
HEBRON         CLOUDY    35  32  88 NE8G17    30.20R WCI  28

...NEBRASKA PANHANDLE...

CITY           SKY/WX    TMP DP  RH WIND       PRES   REMARKS
CHADRON        CLOUDY    40  30  67 CALM      30.15R
ALLIANCE       CLOUDY    38  28  67 E8        30.15R WCI  32
SCOTTSBLUFF    CLOUDY    44  34  67 SW5       30.15S
SIDNEY         CLOUDY    43  33  68 CALM      30.16R

...WESTERN AND NORTH CENTRAL NEBRASKA...

CITY           SKY/WX    TMP DP  RH WIND       PRES   REMARKS
VALENTINE      CLOUDY    33  26  75 NE6       30.23R WCI  28
AINSWORTH      CLOUDY    33  28  83 NE7       30.22S WCI  26
ONEILL         MOCLDY    32  31  96 NW5       30.24R WCI  27
BROKEN BOW     CLOUDY    33  27  78 N3        30.21R
IMPERIAL         N/A     41  27  57 NE10      30.17R
NORTH PLATTE   CLOUDY    36  28  73 NE10      30.19S WCI  28
MCCOOK         MOCLDY    38  29  70 NE16      30.17R WCI  29

...EASTERN NEBRASKA...

CITY           SKY/WX    TMP DP  RH WIND       PRES   REMARKS
NORFOLK        MOCLDY    32  29  88 NW7       30.22R WCI  26
SO SIOUX CITY  MOCLDY    34  21  59 NE13      30.23R WCI  25
TEKAMAH        MOCLDY    34  30  85 NW15G25   30.21R WCI  24
COLUMBUS       CLEAR     32  25  74 N8        30.24R WCI  25
ALBION         PTCLDY    32  28  83 N3        30.23R
OMAHA EPPLEY   PTCLDY    33  31  92 N7        30.21R WCI  27
OFFUTT AFB     MOCLDY    34  31  88 N6        30.20R WCI  29
MILLARD        FAIR      35  32  88 N5        30.21R WCI  31
LINCOLN        PTCLDY    34  32  92 N12       30.23R WCI  25
NEBRASKA CITY  MOCLDY    33  33 100 N7        30.19R WCI  27
BEATRICE       CLOUDY    34  32  94 NE9       30.19R FOG     WCI  26
FALLS CITY     CLOUDY    36  33  89 N9        30.18R WCI  29

...NORTHERN KANSAS...

CITY           SKY/WX    TMP DP  RH WIND       PRES   REMARKS
GOODLAND       CLOUDY    48  32  53 NW7       30.18R
HILL CITY      MOCLDY    41  32  70 NE18      30.16R
NORTON         CLOUDY    36  28  75 NE16G22   30.17S WCI  26
PHILLIPSBURG   CLOUDY    39  34  81 N16       30.20R WCI  30
SMITH CENTER   CLOUDY    36  32  87 N18       30.19R WCI  25
BELOIT         CLOUDY    37  34  87 NE16G26   30.17R WCI  28
HAYS           PTCLDY    46  27  46 N15       30.12R
RUSSELL        MOCLDY    43  34  70 N22G30    30.11R
CONCORDIA      CLOUDY    36  34  92 NE14      30.17R WCI  27
SALINA         PTCLDY    46  37  71 N16       30.10R
TOPEKA         LGT RAIN  38  35  89 NE15G26   30.15R WCI  29



USA.gov is the U.S. government's official web portal to all federal, state and local government web resources and services.